Wind_Speed
40 39 40 41 39 42 42 41 39 35 36 39 43 41 39 36 39 41 41 40 39 39 39 40 40 42 42 42 43 44 46 44 46 48 52 55 58 59 62 65 68 70 72
42 40 37 38 37 34 35 34 32 36 36 38 37 39 40 41 41 40 43 42 42 40 41 44 45 47 48 49 49 50 50 51 50 51 52 56 62 62 65 68 71 73 76
41 37 34 33 30 30 31 34 37 36 32 32 30 31 33 33 33 34 38 38 40 42 43 45 47 49 50 52 52 52 55 58 60 58 59 60 62 65 70 74 78 80 82
38 36 32 30 30 30 36 38 37 34 31 31 31 31 31 31 33 32 33 35 37 40 42 44 46 48 50 52 55 56 58 59 62 64 63 65 65 68 67 74 81 84 86
38 37 36 33 32 34 37 35 33 30 30 30 31 32 34 34 36 38 40 42 44 46 49 51 53 55 56 58 59 60 62 63 64 66 70 73 75 75 73 73 80 85 90
41 41 39 37 35 35 34 34 32 31 32 32 34 35 36 38 40 42 45 48 50 52 55 57 59 61 63 65 66 67 69 70 70 72 74 76 79 81 82 82 84 86 91
45 43 40 40 37 36 36 36 33 33 35 34 37 36 39 41 43 46 49 52 56 59 60 62 66 68 70 72 73 74 75 76 76 78 80 82 84 87 88 90 90 90 93
47 43 44 42 40 40 39 37 37 39 40 38 37 39 42 44 48 52 56 58 60 63 66 70 73 75 76 77 77 79 80 80 81 83 85 88 91 94 98 100 100 94 90
47 45 44 44 41 41 41 39 39 39 39 41 42 44 48 51 54 57 62 64 67 69 72 76 79 82 83 83 83 84 84 84 85 88 90 94 98 102 104 103 99 97 91
48 46 45 44 44 44 41 40 40 40 43 45 46 49 53 57 61 65 68 70 73 77 79 83 86 89 89 87 87 86 86 87 90 93 97 101 103 103 103 103 104 105 105
48 46 45 47 48 43 43 42 42 44 47 49 51 55 60 64 67 72 74 77 80 83 86 90 94 93 91 90 88 87 89 93 96 99 100 101 102 103 106 106 107 108 113
47 46 48 47 46 46 46 46 48 50 53 54 58 61 67 70 74 77 80 83 86 89 92 96 95 93 91 89 90 92 95 96 97 100 102 104 107 107 107 107 111 116 121
49 48 49 46 47 49 51 52 54 56 58 61 64 69 73 77 80 83 86 88 92 95 98 96 93 91 90 92 94 95 96 97 100 103 105 105 106 107 111 115 119 124 128
50 50 50 51 51 53 54 56 58 60 63 66 71 75 79 82 84 88 91 94 97 100 97 93 91 92 93 94 95 96 98 100 103 104 106 108 111 115 119 122 126 129 130
54 55 55 55 55 56 58 60 62 64 68 73 77 81 83 86 89 92 95 99 100 97 91 91 93 94 95 96 96 98 99 100 102 107 111 116 121 124 127 129 128 123 115
58 59 58 58 58 59 62 65 66 70 75 78 81 83 87 91 94 97 100 98 90 89 91 91 91 95 95 97 99 99 99 102 108 113 118 123 126 130 131 124 113 109 104
58 60 60 61 62 64 66 69 73 76 78 80 84 88 92 95 98 99 92 87 90 90 90 92 93 96 98 98 100 101 106 111 117 121 124 129 133 126 114 109 106 104 101
58 60 62 64 66 68 71 74 76 78 81 85 89 92 96 98 94 86 86 87 88 89 90 94 97 97 98 100 104 110 115 120 123 128 132 129 118 111 106 100 98 97 93
60 63 66 68 69 71 72 75 79 82 86 89 92 96 94 84 84 86 86 85 86 90 94 96 95 95 101 108 113 118 122 124 129 131 124 115 108 103 99 94 90 87 84
62 65 66 67 68 73 76 80 83 86 89 92 93 84 82 83 83 83 83 85 90 93 91 92 97 102 109 115 120 123 127 130 126 118 111 107 102 97 92 86 81 78 74
61 63 66 70 74 77 80 83 86 89 88 81 79 80 79 79 80 83 86 89 89 88 92 97 105 112 118 121 125 130 132 122 115 109 103 99 93 88 82 78 73 69 67
66 68 71 74 77 80 83 85 84 78 76 77 76 76 77 79 83 84 85 83 85 91 97 104 111 118 123 129 131 131 123 116 107 101 97 90 84 80 75 70 67 63 59
70 73 75 77 79 82 79 75 73 73 73 72 73 77 78 80 81 79 80 87 92 98 104 110 115 121 128 130 126 121 112 105 101 97 89 82 78 73 67 64 60 56 51
73 74 76 76 71 70 69 68 68 68 69 72 75 78 77 74 75 82 87 93 99 105 111 115 121 126 127 120 114 107 101 97 93 87 82 78 72 68 63 58 52 47 43
68 65 63 64 64 64 64 64 66 67 71 72 72 66 70 76 81 88 94 100 108 112 116 123 126 124 115 110 102 97 93 88 82 78 75 71 67 61 56 51 44 40 36
56 57 58 59 61 62 64 64 64 69 68 64 66 70 75 81 87 93 101 108 113 120 126 129 126 117 112 102 95 93 87 82 77 74 70 65 59 54 49 42 38 34 32
Wind_Direction
235 235 236 235 235 238 242 248 252 258 264 268 275 278 275 278 279 279 283 287 292 291 292 294 294 294 295 294 294 293 293 290 289 288 286 284 283 282 281 279 280 279 280
235 234 233 236 236 241 245 248 255 260 265 269 273 273 277 276 281 278 280 285 290 292 292 293 292 293 293 293 292 291 290 288 286 285 284 286 287 285 283 283 283 282 282
234 230 230 233 236 242 247 255 255 262 263 269 272 274 276 281 282 282 282 284 287 288 291 292 293 293 292 291 290 289 288 287 285 282 279 277 278 281 285 285 284 283 282
224 226 228 227 233 239 245 248 255 255 257 262 266 270 274 277 282 286 289 290 292 294 295 296 296 297 297 296 295 293 288 286 285 285 282 279 276 275 274 277 280 280 279
220 218 219 224 229 237 242 244 244 249 257 262 268 271 281 283 289 294 298 300 300 300 302 302 303 303 302 300 298 297 295 292 288 286 285 284 283 280 273 267 270 274 277
215 214 218 224 229 237 242 247 250 253 260 266 271 276 283 290 295 297 300 303 304 305 306 306 304 302 301 301 300 300 300 297 293 289 287 285 285 284 283 281 278 277 277
214 213 221 227 232 238 245 252 256 260 266 270 277 282 287 292 295 298 302 303 303 305 306 306 307 306 304 304 303 302 301 297 294 291 290 289 287 285 284 284 283 281 280
213 216 223 229 235 241 249 257 262 265 269 273 277 284 290 294 296 298 300 302 304 303 304 307 307 307 307 304 302 301 300 297 295 293 292 291 291 291 289 289 288 287 286
214 220 227 233 240 245 252 258 263 266 269 274 279 285 291 294 297 301 301 303 304 304 305 307 308 308 307 305 303 302 300 298 296 295 295 295 294 294 294 294 293 291 288
218 225 231 239 244 249 256 258 262 267 272 277 282 287 292 296 298 300 300 303 304 305 306 307 307 308 306 305 304 302 300 299 299 298 296 295 295 296 296 295 295 295 295
222 229 235 242 245 252 255 260 264 269 275 280 286 291 293 295 298 300 302 303 305 306 306 307 308 307 306 304 303 302 301 300 299 299 298 298 298 297 298 298 298 297 296
226 234 239 242 247 252 256 261 266 271 277 284 287 290 293 297 300 302 303 304 305 305 306 307 306 305 304 303 302 302 301 301 301 300 300 299 299 299 299 299 299 297 295
231 237 239 245 249 254 260 266 270 276 281 284 287 291 296 299 300 301 303 303 304 306 306 305 304 304 303 302 303 303 302 302 302 300 300 300 300 300 300 299 298 297 298
234 240 245 249 253 259 265 268 273 278 281 284 289 294 296 298 300 301 302 303 305 305 304 304 302 302 302 302 303 304 303 302 302 302 301 302 301 300 299 299 300 301 300
238 242 247 251 257 262 267 271 275 279 283 288 291 293 296 298 300 301 302 304 304 304 302 301 302 303 303 304 304 303 303 303 302 302 302 302 302 301 302 304 303 301 300
240 245 250 254 259 265 269 274 279 283 286 289 293 295 297 298 300 301 303 302 301 300 302 303 303 304 304 304 303 304 304 303 303 302 303 303 304 306 307 305 304 303 301
243 248 253 258 264 270 274 277 280 284 289 291 293 296 298 299 301 301 301 300 301 302 302 304 305 305 305 305 305 305 305 305 304 305 305 307 308 308 307 308 308 306 305
250 254 258 263 268 272 276 280 283 286 289 292 295 297 298 299 300 299 299 300 302 303 304 305 306 305 305 305 306 306 306 305 307 308 309 309 309 310 310 310 308 306 306
252 256 261 265 270 276 280 283 286 289 291 294 295 297 298 299 299 299 301 303 303 305 305 306 305 307 307 307 307 307 307 309 310 312 311 311 312 311 310 309 309 307 307
256 261 266 272 276 279 282 284 288 290 291 293 296 297 297 298 300 302 304 305 306 306 306 306 308 307 308 308 308 309 310 312 313 313 312 313 313 312 310 310 309 308 307
264 268 272 274 277 281 284 286 288 291 293 296 296 298 300 301 303 304 306 305 306 306 307 308 309 310 310 310 311 313 313 315 315 314 313 313 313 311 312 312 311 310 310
267 270 274 277 279 283 286 287 291 292 294 296 298 301 303 303 304 304 305 305 306 308 309 310 311 311 312 312 314 314 315 316 315 315 315 314 314 314 315 314 314 313 312
270 273 277 281 283 284 287 288 289 292 296 300 302 302 304 304 304 304 305 308 309 310 311 311 311 312 312 314 315 316 316 315 316 316 317 316 317 317 317 316 315 314 313
276 278 279 282 283 284 287 290 293 297 299 301 302 303 303 304 305 307 309 309 310 311 312 312 312 312 314 316 317 317 316 317 317 317 317 318 319 319 318 317 316 315 314
276 277 278 280 284 287 289 293 296 298 299 300 301 303 304 306 309 310 310 312 313 313 313 313 313 316 317 318 318 318 317 318 318 318 319 319 319 319 318 317 318 316 315
275 278 281 283 284 287 291 294 296 297 298 299 303 305 307 309 310 311 313 315 315 315 314 315 317 319 318 320 321 319 320 320 321 320 320 321 321 320 319 319 319 319 324
Height
10705 10712 10715 10718 10722 10724 10728 10732 10734 10737 10738 10736 10737 10734 10731 10729 10727 10724 10720 10717 10714 10711 10706 10703 10699 10695 10691 10688 10683 10680 10676 10675 10673 10670 10664 10660 10654 10652 10646 10642 10636 10630 10627
10699 10703 10707 10711 10714 10718 10721 10723 10726 10729 10728 10728 10727 10725 10723 10722 10719 10715 10711 10708 10705 10702 10697 10693 10689 10686 10682 10678 10674 10670 10664 10660 10660 10657 10653 10647 10637 10636 10630 10624 10618 10613 10608
10692 10695 10699 10704 10707 10711 10714 10717 10719 10720 10720 10719 10718 10717 10715 10712 10709 10706 10702 10699 10695 10691 10688 10683 10679 10675 10671 10666 10662 10658 10653 10646 10642 10642 10638 10635 10629 10622 10611 10603 10594 10590 10585
10685 10688 10693 10697 10701 10704 10708 10710 10711 10712 10712 10711 10709 10708 10706 10703 10700 10696 10692 10689 10686 10682 10678 10673 10669 10665 10659 10654 10649 10645 10640 10633 10626 10619 10618 10615 10614 10610 10610 10594 10577 10568 10561
10677 10681 10687 10691 10694 10698 10701 10703 10703 10704 10704 10702 10700 10699 10697 10694 10690 10686 10681 10678 10675 10671 10665 10660 10656 10650 10645 10640 10634 10629 10624 10618 10610 10604 10597 10588 10581 10578 10582 10586 10570 10555 10540
10669 10674 10680 10684 10687 10691 10694 10695 10696 10696 10695 10693 10692 10690 10687 10684 10679 10675 10670 10666 10661 10657 10652 10647 10642 10636 10630 10624 10617 10611 10604 10596 10590 10583 10575 10569 10560 10551 10544 10543 10538 10532 10520
10661 10667 10673 10676 10680 10683 10685 10686 10687 10687 10686 10684 10683 10680 10677 10673 10668 10664 10659 10654 10648 10642 10637 10633 10627 10620 10613 10606 10598 10590 10582 10574 10566 10558 10550 10540 10530 10523 10515 10511 10511 10504 10494
10654 10661 10665 10669 10672 10675 10677 10678 10678 10677 10676 10675 10672 10670 10666 10661 10657 10652 10647 10642 10636 10629 10623 10616 10610 10603 10595 10587 10578 10569 10560 10550 10541 10532 10522 10513 10502 10492 10480 10472 10466 10472 10465
10648 10653 10657 10661 10664 10667 10668 10668 10668 10668 10666 10665 10662 10658 10653 10649 10644 10638 10633 10627 10621 10615 10607 10600 10591 10583 10575 10566 10556 10546 10536 10526 10516 10506 10496 10484 10472 10461 10448 10436 10426 10420 10433
10641 10646 10651 10654 10655 10658 10659 10659 10658 10657 10655 10653 10650 10645 10640 10635 10630 10624 10619 10612 10605 10597 10589 10580 10572 10562 10552 10543 10533 10523 10512 10503 10491 10481 10470 10456 10444 10432 10420 10408 10397 10383 10377
10634 10639 10643 10645 10648 10649 10649 10649 10648 10646 10644 10641 10637 10632 10626 10621 10616 10610 10602 10594 10587 10578 10569 10560 10550 10539 10529 10520 10510 10500 10490 10478 10466 10453 10442 10428 10416 10404 10391 10379 10366 10353 10335
10628 10632 10635 10637 10640 10639 10639 10639 10637 10635 10632 10628 10623 10618 10613 10608 10601 10593 10585 10577 10568 10559 10550 10539 10528 10517 10508 10497 10488 10479 10466 10454 10441 10428 10415 10400 10388 10374 10362 10350 10338 10320 10301
10621 10624 10627 10630 10630 10629 10628 10627 10625 10622 10619 10614 10610 10605 10599 10592 10585 10576 10568 10559 10549 10539 10528 10518 10507 10496 10486 10476 10465 10455 10443 10429 10415 10401 10389 10375 10361 10349 10334 10319 10304 10286 10268
10614 10616 10618 10620 10620 10618 10617 10615 10613 10611 10606 10602 10597 10591 10584 10576 10569 10559 10550 10540 10529 10518 10507 10496 10486 10476 10465 10455 10443 10433 10420 10405 10390 10374 10359 10346 10331 10319 10303 10287 10268 10249 10229
10605 10607 10608 10610 10610 10608 10606 10603 10601 10599 10594 10589 10583 10576 10568 10560 10551 10541 10531 10521 10509 10498 10488 10477 10466 10454 10443 10432 10421 10410 10397 10381 10366 10348 10331 10315 10299 10282 10263 10244 10230 10205 10185
10596 10598 10599 10600 10599 10597 10594 10592 10590 10585 10580 10574 10568 10559 10551 10542 10533 10523 10513 10501 10490 10479 10469 10457 10446 10434 10421 10409 10396 10384 10372 10356 10339 10323 10306 10285 10266 10247 10227 10204 10184 10161 10144
10588 10589 10590 10589 10588 10585 10582 10580 10576 10571 10565 10558 10551 10543 10534 10524 10514 10504 10493 10482 10471 10460 10448 10436 10426 10412 10398 10385 10372 10358 10343 10327 10309 10291 10271 10251 10228 10208 10190 10172 10149 10125 10109
10579 10579 10578 10577 10575 10572 10569 10567 10562 10556 10549 10542 10534 10525 10515 10505 10495 10485 10475 10464 10452 10440 10429 10416 10404 10391 10376 10361 10347 10332 10316 10296 10277 10256 10233 10214 10196 10175 10157 10143 10123 10102 10086
10568 10568 10566 10565 10563 10561 10556 10551 10546 10541 10533 10525 10516 10507 10497 10487 10477 10467 10456 10446 10434 10421 10409 10396 10384 10370 10352 10335 10319 10303 10285 10266 10248 10222 10195 10177 10165 10146 10130 10115 10099 10081 10066
10556 10556 10554 10553 10550 10545 10541 10536 10531 10524 10516 10507 10499 10489 10480 10470 10459 10449 10439 10428 10416 10404 10391 10375 10362 10346 10329 10310 10290 10269 10249 10236 10217 10192 10168 10148 10133 10118 10101 10091 10077 10061 10048
10543 10543 10541 10538 10535 10531 10527 10521 10513 10505 10498 10489 10481 10472 10463 10452 10442 10432 10422 10410 10398 10384 10372 10358 10339 10321 10301 10281 10260 10239 10215 10196 10181 10160 10145 10127 10109 10093 10081 10067 10055 10043 10029
10529 10529 10527 10523 10520 10515 10509 10502 10495 10488 10481 10473 10464 10455 10446 10436 10426 10415 10403 10392 10382 10368 10353 10338 10319 10296 10273 10250 10232 10209 10185 10165 10149 10134 10118 10103 10087 10073 10061 10047 10036 10025 10014
10516 10513 10511 10507 10502 10497 10491 10485 10479 10473 10465 10457 10448 10439 10429 10419 10409 10398 10387 10375 10362 10348 10333 10317 10297 10276 10252 10231 10208 10183 10163 10143 10124 10106 10093 10080 10068 10054 10044 10031 10020 10010 10001
10499 10497 10493 10489 10485 10480 10476 10470 10464 10457 10450 10442 10432 10423 10413 10402 10392 10381 10369 10355 10341 10326 10308 10290 10272 10251 10228 10208 10186 10163 10143 10124 10104 10088 10073 10061 10049 10036 10026 10017 10008 9999 9990
10483 10481 10478 10474 10471 10466 10461 10455 10450 10443 10435 10426 10417 10407 10398 10388 10375 10361 10348 10333 10315 10298 10281 10261 10240 10223 10203 10183 10162 10142 10125 10108 10090 10075 10060 10047 10035 10024 10014 10005 9996 9988 9981
10470 10468 10465 10461 10457 10452 10448 10442 10435 10427 10420 10411 10403 10394 10383 10372 10359 10346 10328 10306 10289 10267 10245 10225 10207 10190 10168 10157 10140 10118 10102 10086 10073 10058 10045 10034 10024 10013 10004 9995 9987 9980 9973